SYRACUSE 4A

Last updated on Sat Jul 18 2026 00:03:05 GMT+0000 (Coordinated Universal Time)

1 49333U 21095B 26198.41941830 .00000000 00000+0 00000+0 0 9993 2 49333 0.0229 68.2620 0001685 39.9155 23.5657 1.00270486 18255
UTC large
Height (km)
Speed (km/s)
/
Latitude / Longitude
Inclination (degrees)
Orbital Period (minutes)
Azimuth
Elevation
Range (km)
Doppler Factor

Next 0 passes for location: London (51.5072 / 0.1276)

No passes found over London.
SYRACUSE 4A